Location: Central Coast NSW, Australia
(33.2407°S, 151.4316°E)
Time: 05:54:43
(UTC+10:00)

N. Korean satellite - Pass Details

Date: 01 April 2019
Orbit: 457 x 508 km, 97.2° (Epoch: 22 April)

Event Time Altitude Azimuth Distance (km) Brightness Sun altitude
Rises 05:31:51 0° 45° (NE) 2,611 10.8 -20.4°
Reaches altitude 10° 05:34:22 10° 63° (ENE) 1,736 10.1 -19.9°
Maximum altitude 05:37:03 19° 109° (ESE) 1,270 9.6 -19.3°
Drops below altitude 10° 05:39:46 10° 155° (SSE) 1,749 9.8 -18.8°
Sets 05:42:19 0° 172° (S) 2,640 10.5 -18.2°
